This is the latest recevied weather packets stored in our database for station/object JS1SZZ-13. If no packets are shown the sender has not sent any weather packets the latest 10 day(s).
| Time | Temp. | Humidity | Pressure | Rain* | Wind** | Luminosity | Snow |
|---|---|---|---|---|---|---|---|
| 1787965058 | 18.89° C | 92% | 1010.4 hPa | 2.54 mm | - | - | - |
| 1787964159 | 18.89° C | 91% | 1010.3 hPa | 3.56 mm | - | - | - |
| 1787963259 | 18.89° C | 91% | 1010.2 hPa | 3.05 mm | - | - | - |
| 1787962358 | 18.89° C | 91% | 1010 hPa | 2.79 mm | - | - | - |
| 1787961459 | 18.89° C | 91% | 1009.9 hPa | 2.03 mm | - | - | - |
| 1787960559 | 18.89° C | 91% | 1009.8 hPa | 0.76 mm | - | - | - |
| 1787959658 | 18.89° C | 92% | 1009.9 hPa | 1.02 mm | - | - | - |
| 1787958760 | 18.89° C | 92% | 1010 hPa | 1.02 mm | - | - | - |
| 1787957858 | 18.89° C | 92% | 1009.9 hPa | 0.76 mm | - | - | - |
| 1787956959 | 18.89° C | 93% | 1010.1 hPa | 1.02 mm | - | - | - |
| 1787956059 | 19.44° C | 93% | 1010.2 hPa | 0.76 mm | - | - | - |
| 1787955159 | 19.44° C | 93% | 1010.5 hPa | 0.76 mm | - | - | - |
| 1787954258 | 19.44° C | 93% | 1010.3 hPa | 1.78 mm | - | - | - |
| 1787953359 | 19.44° C | 93% | 1010.7 hPa | 2.54 mm | - | - | - |
| 1787952458 | 19.44° C | 93% | 1010.6 hPa | 4.06 mm | - | - | - |
| 1787951560 | 19.44° C | 93% | 1010.6 hPa | 4.32 mm | - | - | - |
| 1787950659 | 19.44° C | 92% | 1010.4 hPa | 3.05 mm | - | - | - |
| 1787949758 | 19.44° C | 92% | 1010.3 hPa | 2.03 mm | - | - | - |
| 1787948860 | 20° C | 92% | 1010.5 hPa | 1.27 mm | - | - | - |
| 1787947958 | 20° C | 92% | 1010.6 hPa | 1.27 mm | - | - | - |
| 1787947059 | 20° C | 92% | 1010.5 hPa | 2.03 mm | - | - | - |
| 1787946159 | 20° C | 92% | 1010.4 hPa | 2.03 mm | - | - | - |
| 1787945258 | 20° C | 92% | 1010.6 hPa | 1.78 mm | - | - | - |
| 1787944360 | 20° C | 92% | 1010.8 hPa | 2.29 mm | - | - | - |
| 1787943459 | 20° C | 92% | 1010.9 hPa | 2.79 mm | - | - | - |
* Rain latest hour (hover to see other rain measurements)
** Current wind speed in m/s (hover to see current wind gust speed)